SCP
0 0 0 0 0 0 0 0 0 0 0 0 0 0 0 0 0 0 0 0 0 0 0 0 0 0 0 0 0 0 0 0 0 0 0 0 0 0 0 0 0 0 0
0 0 0 0 0 0 0 0 0 0 0 0 0 0 0 0 0 0 0 0 0 0 0 0 0 0 0 0 0 0 0 0 0 0 0 0 0 0 0 0 0 0 0
0 0 0 0 0 0 0 0 0 0 0 0 0 0 0 0 0 0 0 0 0 0 0 0 0 0 0 0 0 0 0 0 0 0 0 0 0 0 0 0 0 0 0
0 0 0 0 0 0 0 0 0 0 0 0 0 0 0 0 0 0 0 0 0 0 0 0 0 0 0 0 0 0 0 0 0 0 0 0 0 0 0 0 0 0 0
0 0 0 0 0 0 0 0 0 0 0 0 0 0 0 0 0 0 0 0 0 0 0 0 0 0 0 0 0 0 0 0 0 0 0 0 0 0 0 0 0 0 0
0 0 0 0 0 0 0 0 0 0 0 0 0 0 0 0 0 0 0 0 0 0 0 0 0 0 0 0 0 0 0 0 0 0 0 0 0 0 0 0 0 0 0
0 0 0 0 0 0 0 0 0 0 0 0 0 0 0 0 0 0 0 0 0 0 0 0 0 0 0 0 0 0 0 0 0 0 0 0 0 0 0 0 0 0 0
0 0 0 0 0 0 0 0 0 0 0 0 0 0 0 0 0 0 0 0 0 0 0 0 0 0 0 0 0 0 0 0 0 0 0 0 0 0 0 0 0 0 0
0 0 0 0 0 0 0 0 0 0 0 0 0 0 0 0 0 0 0 0 0 0 0 0 0 0 0 0 0 0 0 0 0 0 0 0 0 0 0 0 0 0 0
0 0 0 0 0 0 0 0 0 0 0 0 0 0 0 0 0 0 0 0 0 0 0 0 0 0 0 0 0 0 0 0 0 0 0 0 0 0 0 0 0 0 0
0 0 0 0 0 0 0 0 0 0 0 0 0 0 0 0 0 0 0 0 0 0 0 0 0 0 0 0 0 0 0 0 0 0 0 0 0 0 0 0 0 0 0
0 0 0 0 0 0 0 0 0 0 0 0 0 0 0 0 0 0 0 0 0 0 0 0 0 0 0 0 0 0 0 0 0 0 0 0 0 0 0 0 0 0 0
0 0 0 0 0 0 0 0 0 0 0 0 0 0 0 0 0 0 0 0 0 0 0 0 0 0 0 0 0 0 0 0 0 0 0 0 0 0 0 0 0 0 0
0 0 0 0 0 0 0 0 0 0 0 0 0 0 0 0 0 0 0 0 0 0 0 0 0 0 0 0 0 0 0 0 0 0 0 0 0 0 0 0 0 0 0
0 0 0 0 0 0 0 0 0 0 0 0 0 0 0 0 0 0 0 0 0 0 0 0 0 0 0 0 0 0 0 0 0 0 0 0 0 0 0 0 0 0 0
0 0 0 0 0 0 0 0 0 0 0 0 0 0 0 0 0 0 0 0 0 0 0 0 0 0 0 0 0 0 0 0 0 0 0 0 0 0 0 0 0 0 0
0 0 0 0 0 0 0 0 0 0 0 0 0 0 0 0 0 0 0 0 0 0 0 0 0 0 0 0 0 0 0 0 0 0 0 0 0 0 0 0 0 0 0
0 0 0 0 0 0 0 0 0 0 0 0 0 0 0 0 0 0 0 0 0 0 0 0 0 0 0 0 0 0 0 0 0 0 0 0 0 0 0 0 0 0 0
0 0 0 0 0 0 0 0 0 0 0 0 0 0 0 0 0 0 0 0 0 0 0 0 0 0 0 0 0 0 0 0 0 0 0 0 0 0 0 0 0 0 0
0 0 0 0 0 0 0 0 0 0 0 0 0 0 0 0 0 0 0 0 0 0 0 0 0 0 0 0 0 0 0 0 0 0 0 0 0 0 0 0 0 0 0
0 0 0 0 0 0 0 0 0 0 0 0 0 0 0 0 0 0 0 0 0 0 0 0 0 0 0 0 0 0 0 0 0 0 0 0 0 0 0 0 0 0 0
0 0 0 0 0 0 0 0 0 0 0 0 0 0 0 0 0 0 0 0 0 0 0 0 0 0 0 0 0 0 0 0 0 0 0 0 0 0 0 0 0 0 0
0 0 0 0 0 0 0 0 0 0 0 0 0 0 0 0 0 0 0 0 0 0 0 0 0 0 0 0 0 0 0 0 0 0 0 0 0 0 0 0 0 0 0
0 0 0 0 0 0 0 0 0 0 0 0 0 0 0 0 0 0 0 0 0 0 0 0 0 0 0 0 0 0 0 0 0 0 0 0 0 0 0 0 0 0 0
0 0 0 0 0 0 0 0 0 0 0 0 0 0 0 0 0 0 0 0 0 0 0 0 0 0 0 0 0 0 0 0 0 0 0 0 0 0 0 0 0 0 0
0 0 0 0 0 0 0 0 0 0 0 0 0 0 0 0 0 0 0 0 0 0 0 0 0 0 0 0 0 0 0 0 0 0 0 0 0 0 0 0 0 0 0
Wind_Speed
1 1 1 1 1 1 1 2 2 1 1 2 2 2 2 2 2 2 2 2 3 3 3 3 4 3 3 3 2 3 4 4 7 6 4 3 4 4 4 3 4 4 5
1 1 1 0 0 1 1 1 1 1 1 1 1 1 2 2 2 2 3 3 3 3 3 3 4 3 4 3 3 4 4 4 5 8 5 4 5 4 4 4 5 5 5
1 1 1 0 1 1 1 1 1 1 1 0 1 2 2 2 2 2 3 3 3 3 3 4 4 4 4 4 4 4 4 4 4 6 7 4 4 4 4 5 5 5 6
1 1 1 1 1 1 1 1 1 1 1 1 1 2 2 2 2 2 3 3 3 4 4 4 4 4 5 5 4 5 4 4 4 5 6 5 4 4 3 4 5 4 5
2 1 2 1 1 1 1 1 1 1 1 1 1 1 1 2 2 2 2 3 3 4 4 4 4 5 6 6 5 5 5 4 4 5 6 5 5 4 4 4 6 5 5
1 1 1 1 1 1 1 1 1 1 1 1 1 2 2 2 4 5 3 3 3 4 4 4 4 4 5 8 9 8 7 6 6 6 6 7 7 6 5 4 5 6 6
1 1 1 1 1 1 1 1 1 1 1 2 2 2 3 4 5 6 6 3 3 4 4 4 4 4 4 5 7 9 8 9 10 8 8 8 7 6 5 6 5 6 7
1 1 1 1 2 1 1 2 2 2 2 2 3 3 3 4 6 6 6 3 3 4 4 5 5 5 5 5 5 5 6 6 8 7 7 7 7 5 5 6 6 6 6
2 2 2 2 2 2 2 3 2 2 2 2 2 2 3 5 6 7 6 3 4 5 5 5 5 5 8 8 5 6 6 6 8 9 9 9 10 10 7 4 4 5 7
3 3 2 2 2 3 3 3 2 2 2 2 3 3 3 4 6 6 6 3 4 4 4 4 5 6 9 9 5 5 7 7 5 5 6 8 7 7 8 5 5 5 5
2 1 1 2 2 2 2 2 2 2 2 2 3 3 3 4 6 7 7 3 4 4 4 4 4 9 10 10 8 6 8 7 4 4 4 4 4 4 4 4 4 4 5
1 1 2 2 2 1 1 2 2 2 2 3 3 4 3 4 5 7 8 8 6 5 5 4 5 9 10 11 8 8 10 7 3 3 4 4 4 4 3 3 3 4 4
1 2 2 2 2 1 2 2 2 2 2 3 3 4 4 3 4 8 9 9 9 6 5 8 9 10 9 7 8 9 6 4 4 4 5 5 4 4 3 3 3 3 4
2 2 2 1 2 2 2 2 2 3 3 4 4 4 4 4 4 3 3 4 6 6 5 6 9 9 8 7 5 5 4 4 4 5 5 4 3 3 3 3 3 3 4
2 2 2 2 2 2 2 3 4 4 4 4 4 4 4 5 6 7 5 4 3 4 4 3 3 3 4 4 4 4 4 4 4 4 4 4 4 4 3 3 3 3 4
2 2 2 2 2 2 2 3 6 6 7 8 8 6 5 8 10 9 10 10 9 8 4 4 4 5 5 5 5 5 4 5 5 4 4 4 4 4 4 3 3 3 4
3 3 2 2 2 2 2 3 4 5 6 8 9 9 9 10 10 9 9 10 9 6 4 4 5 5 5 5 5 5 6 5 4 4 5 5 4 4 4 4 4 4 4
3 3 3 3 3 3 3 3 3 3 4 4 6 9 9 10 10 9 9 6 4 4 4 5 5 6 5 5 5 6 5 5 4 5 5 5 5 5 5 5 5 5 5
3 2 2 2 2 2 2 3 3 3 4 4 4 5 6 8 9 8 6 3 4 4 4 5 5 5 5 5 5 5 5 5 5 5 5 5 5 5 5 5 5 6 5
2 3 2 2 2 2 2 3 3 3 4 4 4 4 3 3 3 4 3 3 4 5 5 5 5 5 5 5 5 4 4 5 5 5 5 5 4 5 5 6 5 5 5
2 2 3 2 3 3 3 3 3 3 4 4 4 5 7 3 4 4 4 4 4 5 5 5 5 5 5 4 4 5 5 5 5 5 5 4 4 4 4 5 5 5 4
2 2 2 3 3 3 3 3 3 4 4 5 4 4 7 4 4 4 5 5 5 4 4 4 5 5 5 5 5 5 6 6 5 5 5 5 4 4 4 4 4 4 4
2 2 2 2 2 3 3 3 3 4 4 4 4 4 3 4 4 5 5 5 4 4 4 4 5 5 5 4 5 5 6 6 5 5 5 5 5 5 4 5 5 5 5
2 3 3 3 2 3 3 3 3 4 4 4 4 4 4 4 4 5 5 4 4 4 4 4 5 6 8 6 5 5 5 5 5 5 6 6 6 5 5 5 5 6 5
2 3 3 3 3 3 3 4 4 4 4 4 4 4 4 4 4 5 4 4 5 5 6 5 5 5 7 8 7 6 7 8 8 6 5 5 6 6 6 5 5 5 5
2 3 3 3 3 3 3 4 4 4 4 4 4 4 4 4 5 5 4 4 5 5 5 5 6 7 8 7 8 9 9 9 8 8 5 5 5 5 5 5 6 5 5
Wind_Direction
194 204 219 237 247 253 247 242 227 225 218 209 212 215 226 237 238 234 239 246 249 263 267 261 257 251 253 257 260 259 256 252 265 279 285 295 297 293 298 294 292 284 289
193 183 207 236 279 260 273 282 274 244 235 235 230 226 236 246 244 239 248 249 243 255 267 266 265 264 260 256 256 256 257 257 262 278 287 290 289 290 292 290 293 291 286
183 175 193 213 230 257 277 289 282 261 262 278 244 236 241 245 247 250 249 257 255 252 251 252 260 259 263 265 263 261 264 270 267 272 283 289 289 293 297 294 288 283 289
181 178 201 240 243 251 260 270 271 262 251 239 250 248 241 248 251 257 260 262 263 262 259 256 257 253 254 259 264 265 268 272 272 271 279 287 288 290 287 288 293 289 293
180 195 223 244 251 255 260 268 290 302 284 270 251 263 261 247 250 260 258 259 266 270 269 264 263 262 265 266 268 272 271 267 269 271 276 284 284 292 285 287 285 294 290
192 224 239 248 257 260 270 284 300 302 306 296 268 259 256 255 262 260 263 266 266 266 271 273 273 267 270 275 277 277 273 267 268 267 270 273 278 281 284 282 286 295 292
214 239 240 242 252 258 263 260 255 256 264 264 266 262 263 263 269 271 267 267 267 268 271 277 281 280 273 274 278 280 279 276 270 267 269 271 279 285 290 288 286 286 284
221 239 245 247 254 263 257 254 260 261 254 255 265 264 269 270 274 279 283 274 269 271 273 270 273 280 279 281 281 281 279 278 275 270 266 273 278 283 273 274 279 285 287
228 241 241 235 245 253 255 258 262 260 261 265 272 273 274 278 276 280 284 278 271 273 273 270 268 270 277 284 282 276 280 281 282 281 282 285 287 287 286 284 280 284 286
236 240 238 226 229 244 256 269 278 264 264 274 274 269 268 276 279 281 281 271 273 278 281 275 268 271 280 281 274 270 272 276 284 290 286 287 286 286 287 275 268 269 280
243 243 243 234 237 243 258 272 272 267 273 273 275 278 271 272 277 279 280 272 268 277 278 277 274 281 284 283 279 268 272 282 283 282 287 290 292 288 283 278 272 266 264
227 239 247 246 247 248 249 265 261 247 256 267 275 281 273 269 272 276 277 273 275 270 273 278 281 287 288 286 281 278 283 285 276 273 276 279 282 283 284 282 276 272 267
228 243 248 252 248 238 234 250 262 244 246 258 261 270 277 274 272 274 277 279 277 273 275 282 290 290 290 284 284 288 285 271 264 263 264 266 268 274 280 283 281 277 277
231 246 249 245 261 254 243 235 238 241 244 251 258 266 276 278 275 278 280 282 281 278 280 282 283 284 283 285 287 282 274 268 258 258 265 270 276 275 275 277 280 284 283
233 242 250 247 249 253 248 244 248 247 244 252 255 258 266 272 275 283 289 280 279 280 296 285 279 282 277 278 277 274 270 266 261 259 262 268 271 269 271 274 269 273 266
234 243 243 245 247 248 259 278 262 264 272 269 270 274 274 277 288 285 285 286 286 289 290 273 271 270 270 273 272 271 264 260 258 258 258 257 260 263 268 270 267 260 264
228 241 244 242 244 246 247 259 283 287 273 272 275 279 280 286 289 290 292 293 288 285 271 268 268 269 271 272 272 270 268 264 258 253 254 256 258 260 261 263 260 262 265
238 241 240 240 239 243 244 250 257 272 290 294 285 283 290 292 294 296 298 303 288 275 259 263 268 268 266 266 267 269 271 270 259 254 253 252 249 252 257 258 257 256 264
237 244 242 247 249 251 253 255 259 261 270 284 299 297 294 294 296 294 298 275 271 274 272 271 271 273 272 269 267 267 267 268 267 261 254 251 246 246 251 255 256 258 258
241 251 251 250 252 255 257 256 258 260 267 272 277 285 294 294 287 290 283 267 266 271 272 273 276 276 278 278 276 273 272 269 266 263 263 258 251 245 249 252 251 253 254
249 253 246 247 244 244 249 251 253 256 262 269 272 278 293 290 277 273 272 269 266 270 273 273 274 275 273 274 275 271 269 271 269 265 265 266 262 257 253 251 251 249 252
238 246 246 248 254 252 254 257 257 257 260 268 280 284 289 287 276 275 274 273 272 269 269 270 270 267 265 263 265 270 269 267 268 273 273 267 261 259 256 253 253 253 250
235 248 256 257 255 259 262 258 259 260 263 266 273 278 278 273 273 275 277 279 281 281 276 270 273 276 274 267 259 256 261 262 258 256 264 269 267 261 254 251 249 250 248
228 235 243 251 254 254 257 261 262 265 266 269 270 271 271 273 276 277 279 282 284 284 281 276 272 273 276 278 274 267 265 269 264 253 247 252 262 262 254 248 247 245 247
231 238 242 245 249 253 258 260 263 264 265 266 268 272 275 278 279 280 281 281 281 281 281 281 279 277 277 276 277 276 271 273 273 261 249 246 251 256 254 249 249 248 247
236 240 245 245 247 250 253 259 262 263 264 268 268 269 272 275 278 280 282 282 286 287 285 283 279 281 283 282 279 280 279 278 275 265 251 241 241 248 251 252 249 247 245